Location: Unspecified
(0.0000°N, 0.0000°E)
Time: 02:48:21
(UTC+00:00)

Courier 1B Rocket - Pass Details

Date: 21 December 2018
Orbit: 920 x 1202 km, 28.2° (Epoch: 18 March)

Event Time Altitude Azimuth Distance (km) Brightness Sun altitude
Rises 01:56:28 0° 230° (SW) 3,782 - -52.9°
Reaches altitude 10° 01:59:21 10° 225° (SW) 2,784 - -52.3°
Maximum altitude 02:05:49 49° 151° (SSE) 1,220 - -51.1°
Drops below altitude 10° 02:11:54 10° 77° (ENE) 2,631 - -49.9°
Exits shadow 02:14:31 - 72° (ENE) 3,546 8.2 -49.4°
Sets 02:14:32 0° 72° (ENE) 3,556 8.2 -49.4°
